Torna al catalogo

IABS R/B

AttivoGEO
NORAD 22738·ROCKET BODY·🇺🇸 United States

Lanciato Jul 19, 1993 da Cape Canaveral Space Force Station

Loading…

TLE

AggiornatoSource: Space-Track

Epoca: Aug 28, 2026, 03:28 UTC

1 22738U 93046C   26240.14475027 -.00000102  00000-0  00000-0 0  9992
2 22738  12.3993 336.3376 0083591 146.8042 213.7925  1.02137350 27069

Traccia IABS R/B in tempo reale con AllMySat

Download on the App Store